Regional Weather Roundup
Issued by NWS

Home | Current Version | Previous Version | Graphics & Text | Print | Product List | Glossary On
Versions: 1 2 3 4 5 6 7 8 9 10 11 12 13 14 15 16 17 18 19 20 21 22 23 24 25 26 27 28 29 30 31 32 33 34 35 36 37 38 39 40 41 42 43 44 45 46 47 48 49 50
000
ASUS43 KDMX 290407
RWRIA

WEATHER ROUNDUP FOR IOWA
NATIONAL WEATHER SERVICE DES MOINES IA
1100 PM CDT MON JUL 28 2014

NOTE: "FAIR" INDICATES FEW OR NO CLOUDS BELOW 12,000 FEET WITH NO
SIGNIFICANT WEATHER AND/OR OBSTRUCTIONS TO VISIBILITY.

* - THESE STATIONS ARE NOT NWS STATIONS...THUS NOT UNDER NWS
QUALITY CONTROL.  THEY ALSO DO NOT REPORT WEATHER SUCH
AS PRECIPITATION OR FOG.

IAZ001>003-012>014-020>022-031>034-043>046-290500-
   NORTHWEST IOWA

CITY           SKY/WX    TMP DP  RH WIND       PRES   REMARKS
CARROLL *      PTCLDY    59  57  94 CALM      30.19S
CHEROKEE *     PTCLDY    61  59  94 CALM      30.20S
DENISON *      CLEAR     61  59  94 CALM      30.18S
LE MARS *      MOCLDY    61  57  88 CALM      30.22R
ORANGE CITY *  CLEAR     64  55  72 NE3       30.22R
SHELDON *      CLEAR     54  54 100 CALM      30.21S
SIOUX CITY     CLEAR     60  56  86 N3        30.20S
SPENCER        CLEAR     56  54  93 NW3       30.21R
STORM LAKE *   CLEAR     59  59 100 N5        30.21S
$$

IAZ055>058-069>071-079>083-090>094-290500-
   SOUTHWEST IOWA

CITY           SKY/WX    TMP DP  RH WIND       PRES   REMARKS
ATLANTIC *     CLOUDY    64  61  88 N3        30.18S
AUDUBON *      CLEAR     61  57  88 CALM      30.20S
CLARINDA *     CLEAR     59  57  94 CALM      30.20R
COUNCIL BLFS *   N/A     64  59  82 N5        30.18S
CRESTON *      MOCLDY    63  59  88 CALM      30.19R
HARLAN  *      PTCLDY    61  59  94 N5        30.23R
LAMONI         PTCLDY    63  57  81 N3        30.17S
RED OAK *      CLEAR     61  57  88 CALM      30.18S
SHENANDOAH *   CLEAR     61  57  88 CALM      30.19S
$$

IAZ047>049-059>061-072>074-084-290500-
   CENTRAL IOWA

CITY           SKY/WX    TMP DP  RH WIND       PRES   REMARKS
AMES           CLEAR     59  57  93 CALM      30.16S
ANKENY *       CLEAR     59  57  94 CALM      30.16S
CHARITON *     PTCLDY    63  57  82 W6        30.16F
DES MOINES     CLEAR     65  59  81 NW3       30.16S
GRINNELL*      CLEAR     61  57  88 W3        30.16S
KNOXVILLE *    CLEAR     63  57  82 NW5       30.15S
MARSHALLTOWN   CLEAR     59  57  93 W6        30.15S
PELLA *        CLEAR     61  59  94 CALM      30.16S
PERRY *          N/A     61  59  94 CALM      30.18S
$$

IAZ004>006-015-016-023>025-035-036-290500-
   NORTH CENTRAL IOWA

CITY           SKY/WX    TMP DP  RH WIND       PRES   REMARKS
ALGONA *       CLEAR     59  55  88 W7        30.19R
CLARION *      CLEAR     59  57  94 CALM      30.17S
ESTHERVILLE    CLEAR     58  55  90 NW6       30.19S
FORT DODGE *   CLEAR     57  54  88 CALM      30.19S
MASON CITY     CLEAR     57  53  86 W6        30.18S
FOREST CITY *  CLEAR     55  55 100 CALM      30.17S
IOWA FALLS *     N/A     58  55  89 W3        30.18S
$$

IAZ007>011-017>019-026>030-037>042-050>054-066-290500-
   NORTHEAST IOWA

CITY           SKY/WX    TMP DP  RH WIND       PRES   REMARKS
CEDAR RAPIDS   CLEAR     60  55  83 NW7       30.13S
CHARLES CITY * CLEAR     59  55  88 NW5       30.15F
CLINTON *      CLEAR     55  52  88 NW5       30.14S
DECORAH *      CLEAR     57  54  88 CALM      30.13S
DUBUQUE        CLEAR     57  52  83 NW3       30.12F
MONTICELLO *   CLEAR     55  55 100 CALM      30.12F
OELWEIN *      CLEAR     57  55  94 NW5       30.15S
WATERLOO       CLEAR     59  56  89 CALM      30.13F
$$

IAZ064-065-067-068-078-290500-
   EAST CENTRAL IOWA

CITY           SKY/WX    TMP DP  RH WIND       PRES   REMARKS
DAVENPORT      CLEAR     56  53  90 W8        30.12F
IOWA CITY      CLEAR     61  58  90 CALM      30.14S
MT. PLEASANT * CLEAR     61  57  88 CALM      30.14S
MUSCATINE *    CLEAR     61  55  82 CALM      30.13S
QUAD CITIES    CLEAR     57  53  86 CALM      30.11F
$$

IAZ062-063-075>077-085>089-095>099-290500-
   SOUTHEAST IOWA

CITY           SKY/WX    TMP DP  RH WIND       PRES   REMARKS
BURLINGTON     CLEAR     61  57  87 NW5       30.13S
FAIRFIELD *    CLEAR     59  57  94 W3        30.15S
FORT MADISON * CLEAR     63  59  88 CALM      30.14F
KEOKUK *       PTCLDY    61  59  94 CALM      30.13F
OSKALOOSA *      N/A     61  57  88 NW5       30.15S
CENTERVILLE *  CLEAR     61  59  94 NW3       30.17S
OTTUMWA        CLEAR     59  57  93 NW5       30.15R
WASHINGTON *   CLEAR     61  59  94 NW5       30.14S
$$

ABBREVIATIONS USED IN REMARKS
   TC - TEMPERATURES IN CELSIUS
  WCI - WIND CHILL INDEX
   HX - HEAT INDEX
  VSB - VISIBILITY
$$



USA.gov is the U.S. government's official web portal to all federal, state and local government web resources and services.